Wind_Speed
10 10 10 10 11 11 10 10 10 10 10 10 10 10 10 9 9 9 9 10 12 13 15 15 15 15 15 15 15 16 17 17 17 16 14 15 17 20 22 21 22 22 20 19 19 17 15 14 12 9 9 10 8 5 4 3 3 5 5 7 9 8 8 2 3 12 25 27 25 24 21 20 20 23 23 23 21 17 20 21 21 22 21 22 23 24 26 26
10 10 9 10 10 9 9 9 9 9 10 10 10 10 10 10 10 9 9 10 11 12 14 15 16 16 16 16 15 16 16 17 17 16 16 16 16 18 20 21 22 22 20 19 19 17 15 14 11 9 10 11 8 6 5 3 3 4 5 7 8 8 7 2 2 14 26 25 24 24 22 20 20 23 24 23 21 17 21 23 23 22 22 24 25 25 26 25
9 9 9 9 9 9 9 8 8 9 10 10 10 11 10 10 11 10 10 10 11 12 13 15 16 17 17 17 16 15 15 16 16 16 18 17 16 17 20 21 22 22 21 19 18 17 17 15 11 8 10 11 9 7 5 4 4 5 6 8 7 7 6 2 3 16 26 24 24 25 22 20 20 22 23 21 19 17 19 23 25 22 23 26 26 25 25 25
10 10 10 10 9 9 9 9 9 9 10 10 11 11 11 11 11 11 11 10 10 12 13 14 16 17 18 17 17 15 15 15 16 18 19 17 17 18 20 21 22 23 22 21 20 19 19 17 14 11 11 12 10 8 6 5 5 5 7 8 8 8 8 2 9 22 27 25 24 23 21 20 20 21 21 19 17 18 19 20 22 19 21 26 25 24 24 23
10 10 10 10 9 9 9 8 8 8 9 9 10 10 10 10 10 10 10 10 10 11 12 13 14 17 18 18 18 16 14 13 15 19 19 18 18 18 20 21 22 23 23 22 21 20 20 19 17 15 15 13 11 9 7 6 5 5 6 7 8 10 8 6 17 25 26 26 24 20 19 19 19 20 19 17 15 18 21 20 18 15 19 23 23 22 22 22
9 9 9 9 9 9 8 8 7 7 7 8 8 9 9 9 9 9 9 9 9 9 11 13 13 15 18 19 18 17 15 12 14 18 19 20 19 19 21 21 22 24 24 23 21 21 22 21 20 17 17 16 12 9 7 5 4 5 5 5 7 10 9 14 20 22 20 22 23 19 18 17 18 19 18 16 14 17 22 19 16 16 20 22 22 21 21 21
9 9 9 9 9 9 8 8 7 7 7 7 7 8 9 9 10 10 9 8 8 8 10 12 13 14 17 19 19 18 16 13 14 18 20 21 21 20 21 22 22 23 23 23 22 23 23 23 21 18 19 18 13 10 7 5 4 5 4 3 6 7 9 17 20 20 19 20 19 15 15 16 16 18 18 16 16 19 22 18 15 19 22 22 21 21 21 20
10 9 9 9 9 9 9 8 7 7 6 6 7 8 9 9 10 10 9 8 8 7 7 10 12 14 16 18 20 18 17 16 16 18 21 22 21 21 21 22 22 22 22 22 23 24 24 24 22 20 20 16 12 9 7 5 4 5 2 0 3 4 10 16 18 20 21 23 20 14 15 16 15 16 17 18 19 21 21 17 17 21 23 22 21 21 22 21
11 10 10 10 10 9 9 9 8 8 7 7 7 8 9 10 10 10 9 9 8 6 6 7 10 13 15 17 19 18 18 18 17 18 21 22 22 22 22 21 21 21 21 22 24 25 25 25 22 21 19 15 12 9 6 5 5 5 2 3 3 4 11 16 18 20 21 23 19 15 17 17 16 15 17 19 20 22 21 17 19 23 23 22 21 21 22 22
11 11 11 11 10 10 9 9 9 8 8 7 7 8 9 9 10 10 10 9 8 7 5 5 8 11 14 16 18 19 19 20 19 19 21 22 23 23 23 22 22 21 20 23 25 26 26 23 21 21 19 15 13 10 6 4 4 3 3 5 4 3 10 15 16 19 19 20 16 13 17 17 16 17 18 19 20 21 20 18 22 24 23 22 22 21 21 21
11 11 11 11 11 10 9 8 8 8 8 7 7 7 8 8 9 10 10 10 9 7 6 4 7 10 13 16 17 19 21 21 20 21 21 22 24 25 24 24 23 21 19 22 25 25 24 22 22 22 19 16 14 10 7 4 4 4 5 5 4 2 8 12 13 16 17 17 15 12 15 17 17 17 16 17 21 20 18 20 24 24 23 23 22 22 21 21
10 10 10 11 11 11 9 8 8 7 7 7 7 6 7 7 8 9 10 11 10 8 6 5 6 9 12 14 15 19 22 22 22 21 21 22 24 26 26 25 25 23 21 20 22 23 23 24 24 23 19 16 14 9 7 6 6 6 6 6 4 4 7 11 12 15 16 16 16 14 16 19 19 17 15 16 20 19 18 21 25 24 24 23 23 23 22 21
10 10 10 11 11 10 10 9 8 8 8 7 7 7 7 7 8 9 10 10 11 9 7 6 6 9 12 12 14 19 22 23 22 21 20 20 22 25 26 26 26 26 24 21 21 22 24 25 25 23 20 17 14 9 8 9 8 8 7 6 5 8 8 10 12 15 15 15 16 17 19 20 20 17 15 17 19 19 21 23 25 25 25 24 24 24 23 22
11 11 11 11 11 10 10 10 9 10 9 8 8 8 8 9 9 10 10 10 10 9 7 6 7 9 12 12 15 19 21 21 20 20 19 19 20 23 24 26 27 27 26 23 24 25 25 25 25 23 20 16 14 11 9 10 10 9 8 7 8 11 11 10 12 14 16 17 17 18 20 20 20 19 16 17 19 20 23 25 26 26 25 25 24 25 23 22
11 11 11 11 11 11 10 10 10 10 10 10 10 9 9 10 10 10 11 11 9 8 6 6 8 10 12 13 14 17 19 19 18 20 20 19 19 20 23 25 26 27 26 26 27 28 27 26 26 25 20 16 14 11 9 12 11 10 10 11 12 12 13 12 11 13 15 17 19 20 18 19 21 20 17 17 19 21 23 26 27 26 25 25 25 25 24 21
11 11 11 11 11 11 11 10 10 10 10 10 10 10 11 11 11 11 11 11 8 6 5 6 8 10 11 12 14 16 18 18 19 20 21 20 20 20 22 24 26 27 27 28 30 30 30 29 28 25 21 18 15 11 10 11 11 12 13 13 14 14 14 15 12 12 14 14 19 21 18 19 22 21 19 17 20 23 24 26 28 26 26 25 25 25 24 22
10 10 11 11 11 12 11 11 11 11 10 11 11 12 13 12 11 11 11 11 8 4 4 5 7 8 9 10 13 17 19 20 21 20 20 20 21 21 21 22 25 27 28 29 30 32 32 32 29 26 23 20 16 13 12 13 14 16 16 15 15 14 14 16 13 14 17 14 17 20 18 19 21 21 20 18 21 25 25 26 28 27 26 25 25 24 24 23
9 9 10 10 11 12 12 11 11 11 11 11 12 12 12 13 12 10 10 12 8 3 3 3 6 6 7 8 11 17 20 21 21 19 18 19 21 22 21 22 24 27 29 29 30 33 34 32 30 27 25 23 19 17 17 17 18 19 20 17 16 16 14 16 13 13 18 16 16 19 18 18 19 20 21 20 23 26 25 25 27 28 26 25 25 24 23 22
8 9 9 10 10 11 12 11 11 11 11 12 13 12 11 12 9 8 9 10 8 4 2 4 6 6 7 8 10 17 19 21 20 16 15 17 20 23 24 24 25 27 29 29 30 33 34 32 30 30 29 26 22 20 18 14 14 17 19 17 16 15 15 16 13 11 16 17 16 18 17 16 17 18 21 21 24 27 26 26 28 29 27 26 25 25 24 22
8 8 8 9 9 10 11 11 11 11 12 13 13 12 12 9 5 7 8 8 8 3 3 6 5 6 7 6 10 15 18 20 18 14 14 16 18 22 25 26 26 28 28 29 32 33 33 31 33 34 32 28 23 19 14 9 10 15 16 16 16 13 13 16 14 12 15 16 16 15 14 15 16 15 18 23 24 27 29 28 30 30 29 28 27 25 24 22
8 8 8 8 9 10 11 11 10 10 11 12 11 11 13 11 9 11 9 7 7 1 6 8 8 8 6 4 8 13 16 18 16 14 16 16 18 20 24 26 27 29 28 29 32 33 31 31 34 34 29 26 21 17 14 9 10 14 14 15 16 14 14 15 16 14 14 18 18 15 12 14 16 14 16 24 27 27 29 29 30 31 30 29 28 26 24 22
8 8 7 7 8 9 9 10 9 9 10 10 8 9 12 12 12 14 12 11 7 5 10 11 10 9 6 3 6 9 13 17 14 14 17 16 17 18 20 25 27 28 29 29 32 32 29 31 34 30 26 25 20 17 16 13 13 14 13 12 13 14 15 15 17 16 14 18 20 17 14 13 15 15 15 23 28 27 27 29 29 30 30 29 28 26 24 23
8 8 7 7 7 7 8 8 8 8 8 7 6 8 10 11 12 12 13 14 8 10 12 11 9 8 6 4 3 3 9 15 14 15 17 16 15 14 17 22 25 26 28 30 33 32 28 29 33 29 26 24 19 18 20 18 15 15 15 12 10 12 13 13 16 16 14 15 16 15 15 13 13 15 14 18 27 28 28 29 30 31 30 28 27 25 24 23
7 8 7 7 6 5 5 6 6 6 6 5 5 7 10 11 11 9 10 11 9 10 10 9 9 8 6 6 6 5 7 13 13 14 16 15 13 12 13 17 21 24 26 30 32 31 28 26 28 29 26 23 20 19 21 21 19 17 16 13 9 9 9 9 10 14 15 15 14 13 13 14 14 16 15 16 25 29 29 32 33 33 32 30 27 25 24 23
7 7 7 7 6 4 3 4 5 5 6 5 6 8 9 10 9 8 8 7 8 7 6 6 9 6 4 6 4 4 7 10 11 12 12 13 12 10 11 13 18 21 24 29 29 29 30 23 19 24 26 23 20 20 21 22 21 19 18 15 10 6 5 6 8 12 16 17 17 14 10 10 15 17 15 16 23 27 29 33 34 33 32 32 30 26 24 23
6 7 6 7 6 4 2 2 4 5 5 5 6 7 8 8 6 7 7 6 8 6 3 5 7 3 4 6 1 2 8 9 10 11 9 11 10 8 10 12 17 20 21 26 26 27 31 26 17 18 24 24 22 21 21 21 21 20 19 15 11 8 6 7 10 13 17 17 17 17 11 7 13 19 18 19 23 25 28 31 33 35 34 33 31 28 25 23
6 6 5 6 6 4 1 2 4 4 4 4 5 7 7 7 4 5 5 3 6 8 7 4 3 2 4 5 4 3 5 7 11 10 9 11 9 9 10 12 16 19 19 21 22 23 26 28 22 17 19 24 24 23 22 21 22 21 19 14 10 9 9 10 11 13 16 16 15 17 15 8 11 18 21 22 24 25 28 31 33 36 36 34 32 29 27 23
5 6 5 5 4 3 1 2 4 3 3 3 4 6 7 6 4 5 3 1 5 8 6 3 2 1 2 4 6 4 3 7 9 7 9 10 10 10 8 9 14 17 18 19 20 20 19 24 27 21 17 21 25 25 23 22 22 23 20 14 10 7 8 10 11 14 16 14 14 18 18 9 8 14 19 23 26 28 30 31 33 36 37 36 33 30 28 25
4 5 4 3 3 2 0 3 4 3 3 3 4 6 6 4 2 4 2 1 5 9 9 7 3 1 2 3 6 7 5 7 6 5 9 10 10 11 6 6 12 16 17 19 21 20 16 17 23 24 20 19 22 24 24 24 24 23 19 14 11 7 6 8 12 16 12 9 13 20 21 11 5 11 19 25 26 27 32 33 31 33 35 35 34 31 29 27
4 4 3 2 1 1 2 4 4 4 4 3 4 6 7 4 1 2 2 3 7 9 9 9 5 1 1 1 5 8 6 5 5 5 8 9 10 10 7 5 10 13 14 17 23 23 19 16 19 24 23 19 20 21 23 25 24 22 18 15 12 7 7 11 14 14 8 5 15 20 22 15 5 8 17 23 17 16 26 33 31 30 32 34 35 33 30 28
3 3 2 2 2 2 3 5 5 4 4 3 4 6 8 8 6 4 2 4 9 10 10 9 5 3 4 4 5 7 5 5 6 6 6 9 10 10 9 7 8 11 11 13 17 20 22 21 20 24 24 21 20 19 19 21 22 20 16 15 10 5 8 9 9 8 4 4 12 15 20 19 11 8 9 12 12 12 17 25 30 32 31 33 36 34 31 29
2 2 2 2 3 4 5 6 6 4 3 2 3 3 3 6 9 8 5 5 7 10 12 9 4 4 5 4 4 4 5 5 5 6 8 10 11 10 10 8 8 9 9 10 12 14 20 24 23 23 24 23 20 18 18 19 21 21 18 15 8 6 5 4 2 3 4 8 6 6 14 18 17 17 13 13 14 14 14 15 24 31 30 31 35 35 33 31
1 2 3 4 5 5 6 7 6 4 3 1 2 2 3 4 6 8 9 9 8 10 11 8 8 8 6 4 3 3 5 4 4 8 11 11 11 11 11 10 9 9 8 9 10 9 12 18 22 23 23 25 23 20 21 22 22 24 24 20 12 6 3 1 1 1 4 11 8 5 10 12 14 16 17 18 14 13 15 13 18 27 30 30 33 35 35 34
2 3 4 6 6 7 7 7 6 5 3 2 2 3 5 7 6 7 10 11 10 10 7 7 9 7 5 7 6 4 6 6 4 7 10 11 10 10 10 11 11 12 10 8 8 7 6 10 20 25 22 24 26 23 20 19 21 25 25 21 17 12 6 4 4 4 3 3 4 7 8 6 9 11 13 16 13 12 14 14 15 22 28 29 32 37 38 37
4 5 7 7 7 7 7 6 5 5 6 5 4 5 6 7 6 8 9 10 12 10 5 5 6 5 8 11 9 5 7 8 6 6 8 9 9 7 6 6 7 12 13 9 7 7 6 7 14 24 22 20 24 23 18 16 17 21 23 21 21 18 11 8 11 15 10 4 5 10 9 6 9 12 12 12 12 11 11 13 14 20 26 29 33 40 39 38
7 8 8 7 7 7 7 6 5 6 7 7 9 11 11 7 6 7 8 9 12 12 5 3 4 5 10 11 10 8 6 5 6 6 9 10 8 7 6 3 2 7 10 10 9 6 6 5 8 19 23 19 18 18 18 17 16 18 24 25 21 18 16 11 10 12 10 3 4 8 9 10 10 11 13 12 11 10 12 13 13 18 25 26 31 40 41 38
10 11 10 10 9 9 8 7 7 7 6 7 11 13 11 7 7 7 7 8 10 11 6 3 4 6 8 9 10 11 7 7 9 8 8 9 8 9 7 3 2 1 5 10 11 7 7 7 8 14 21 21 16 13 16 18 16 16 22 25 20 16 18 15 6 4 4 2 3 8 11 12 8 7 11 13 12 10 13 15 13 17 23 23 24 31 36 37
13 13 12 12 11 10 9 8 8 8 7 8 10 10 9 9 8 6 7 8 8 9 8 7 7 7 8 8 9 10 7 9 12 11 8 5 6 9 7 3 3 4 2 5 6 6 7 7 7 10 16 20 18 14 15 19 19 16 16 20 20 13 14 15 7 2 4 1 1 6 9 11 12 12 11 13 14 13 15 18 16 17 21 23 21 22 26 29
14 13 13 12 11 10 9 8 7 7 6 8 9 9 9 9 7 5 5 6 7 9 10 9 8 7 8 9 9 9 8 9 12 12 8 5 4 5 6 4 3 5 2 1 2 3 4 5 4 7 12 18 20 19 18 20 21 17 14 20 23 15 14 18 13 6 6 3 1 3 4 8 16 18 14 12 16 17 18 20 19 17 18 20 21 21 21 21
12 11 11 11 10 9 8 7 6 6 7 8 7 7 8 8 6 5 4 5 6 8 9 9 7 7 8 8 8 9 9 7 8 10 8 6 3 1 1 1 2 5 3 1 1 2 3 4 3 5 11 16 19 20 20 21 23 20 18 24 26 17 15 17 13 9 8 5 3 2 2 8 17 20 16 14 17 20 21 20 19 17 16 16 18 19 19 18
11 9 9 9 8 8 7 5 4 5 5 5 4 4 5 6 5 3 3 4 5 6 8 7 6 7 6 6 7 8 9 7 8 9 9 7 4 2 3 6 6 6 4 3 3 3 2 2 3 4 11 14 16 19 20 21 23 21 19 24 25 20 17 14 7 8 10 7 7 6 3 7 16 20 19 17 18 22 22 20 18 16 15 15 17 18 18 18
10 9 9 8 7 6 4 2 2 3 2 2 3 4 3 3 2 2 3 3 2 4 6 5 7 7 5 5 6 8 9 9 9 9 7 7 5 3 4 9 9 9 7 5 5 5 4 2 1 5 12 14 14 17 20 21 21 21 19 20 21 21 21 14 7 9 13 9 9 9 4 6 16 22 21 19 20 22 22 20 18 16 15 15 16 17 18 19
9 9 9 6 5 3 1 1 2 2 2 3 2 3 3 1 2 3 3 2 1 3 4 4 5 6 6 5 3 7 9 8 9 9 7 7 5 5 4 8 9 8 6 5 6 6 5 3 3 10 15 15 15 16 19 19 18 19 18 16 17 19 21 17 10 11 16 13 11 8 3 6 16 22 22 20 22 23 22 21 19 17 16 16 15 16 17 17
8 9 7 5 4 2 1 1 3 4 5 6 4 0 1 2 5 4 3 2 3 2 3 2 2 3 5 5 2 5 6 7 8 9 8 7 6 5 5 4 9 8 6 4 6 6 5 3 3 7 10 12 14 13 15 17 17 18 17 16 15 16 18 17 12 11 15 16 15 10 5 9 17 21 22 22 23 24 23 22 20 18 17 17 16 16 16 16
8 9 6 5 5 2 1 2 4 6 7 7 6 3 1 4 6 4 1 2 2 2 1 0 1 2 2 3 1 2 3 6 7 8 8 7 6 5 4 1 4 6 5 3 5 8 10 9 4 4 5 6 7 6 8 12 14 16 16 15 14 14 15 14 14 14 14 15 17 13 9 13 19 23 24 24 23 25 24 22 21 20 18 17 15 15 16 16
8 9 7 6 6 3 1 3 4 6 8 8 7 4 2 4 5 4 3 2 2 2 0 1 2 1 1 1 1 1 2 5 6 6 6 5 5 5 4 4 2 1 2 1 4 8 13 14 14 13 11 10 9 8 7 8 10 12 13 13 11 11 13 12 13 15 14 15 18 16 11 13 20 24 26 26 24 25 25 23 21 19 18 17 15 14 14 14
10 9 9 8 7 5 3 3 3 5 8 9 7 4 1 2 3 3 3 2 2 2 1 1 1 1 1 2 3 3 3 4 5 5 5 3 2 3 4 4 4 1 1 2 4 6 8 11 15 16 14 12 12 11 10 8 8 9 11 11 10 10 11 11 11 12 13 14 15 17 15 12 15 21 25 27 26 25 25 23 20 18 17 16 16 15 14 14
11 9 10 10 8 8 6 5 4 4 6 7 6 5 2 1 3 4 4 4 3 4 4 3 2 3 2 3 3 4 5 5 4 3 3 2 1 1 2 2 2 1 1 3 5 5 7 8 10 13 13 12 11 11 10 8 7 8 10 10 10 9 9 10 10 9 12 13 11 14 16 12 11 17 23 26 27 27 26 23 19 17 15 15 16 16 15 15
11 10 10 11 9 8 7 7 6 4 4 5 6 5 2 2 5 5 5 5 5 5 6 5 5 5 4 4 4 3 5 5 4 3 2 1 1 2 3 4 3 1 1 2 5 7 11 15 11 10 13 13 12 12 10 7 6 7 9 10 9 8 7 8 9 9 11 12 10 11 14 13 11 14 20 25 27 27 25 22 18 16 15 14 14 15 14 14
11 10 12 13 11 9 8 7 6 6 5 5 6 5 3 4 6 6 6 5 4 3 3 4 5 5 4 5 5 4 5 5 3 3 2 0 2 3 3 3 3 4 4 1 5 7 11 17 16 10 11 11 9 9 11 10 7 5 10 11 10 10 9 7 8 9 10 9 10 12 14 15 14 13 16 22 26 27 25 22 19 17 16 14 13 13 13 13
13 12 12 13 12 11 10 8 7 6 6 5 5 4 4 6 7 8 7 4 2 1 1 3 3 2 1 3 5 4 5 6 4 3 2 1 1 3 3 4 5 6 5 3 2 6 9 14 18 15 9 7 7 5 6 8 6 3 8 11 10 9 9 7 8 9 7 4 8 13 14 15 15 14 15 20 25 27 26 23 21 18 16 14 13 13 13 13
15 15 13 13 12 11 11 10 9 8 7 6 5 4 5 6 7 7 6 3 2 1 1 1 2 1 2 2 6 7 7 7 5 4 2 1 0 2 4 4 5 6 5 4 2 5 8 12 16 17 15 8 4 8 3 2 4 4 7 10 8 6 7 7 5 6 6 4 6 10 10 11 13 14 17 19 22 25 25 23 20 17 16 15 14 13 14 14
Wind_Direction
334 328 323 320 318 317 316 314 310 307 304 303 299 295 290 282 274 265 258 252 245 238 233 229 227 226 227 225 223 223 220 217 215 212 208 204 203 203 203 201 202 209 211 208 208 206 197 194 192 182 175 174 176 171 147 113 67 47 40 27 19 10 3 348 207 181 172 168 166 166 166 170 167 160 157 153 153 163 167 166 168 165 164 171 170 162 159 159
342 337 333 328 326 324 322 319 314 311 309 307 303 298 293 287 280 270 260 253 249 242 234 230 227 225 225 225 223 221 220 218 213 208 209 207 202 202 204 202 203 210 211 208 209 206 200 200 194 179 172 176 183 176 152 118 76 51 40 29 16 360 360 11 207 176 170 170 167 163 162 166 166 161 159 158 154 164 169 164 166 164 162 171 171 164 162 161
341 338 334 330 329 326 324 322 317 314 311 308 305 301 298 294 288 281 270 258 250 246 239 231 227 224 224 224 223 220 217 218 210 206 210 206 200 202 203 201 203 211 210 207 207 202 201 202 196 184 179 184 186 171 151 124 92 58 46 31 9 8 19 4 185 167 168 172 167 160 160 164 166 164 164 164 159 167 173 165 162 164 166 172 171 166 164 162
337 335 331 328 326 324 322 320 317 314 311 309 307 305 304 300 294 289 283 270 256 247 241 235 228 225 223 222 223 220 215 216 208 206 210 204 200 201 201 200 202 210 210 206 204 199 198 194 189 191 187 184 181 165 145 121 93 60 46 24 2 22 30 22 153 159 167 170 166 161 160 163 168 170 170 171 169 166 169 166 160 165 172 171 169 166 164 162
338 335 332 330 328 327 325 325 323 320 317 317 317 319 319 313 305 297 290 280 265 253 244 238 230 225 223 221 221 217 212 213 207 206 208 203 201 199 199 200 202 208 209 207 203 199 196 188 186 190 181 176 174 157 137 116 87 64 46 20 9 31 49 120 146 155 165 166 164 163 161 164 171 174 175 179 182 164 159 165 163 168 176 170 165 163 163 160
344 340 336 332 330 329 328 329 328 326 326 327 330 335 338 335 326 315 303 290 277 263 249 240 232 226 223 220 219 215 207 206 205 204 205 202 200 197 197 200 203 207 208 207 203 200 197 188 186 186 175 169 163 150 138 125 98 77 49 27 33 43 83 127 139 145 155 163 163 161 160 165 170 174 177 179 180 163 159 167 165 168 176 172 165 161 160 158
354 347 340 333 330 327 325 325 324 324 325 327 333 339 344 344 340 336 327 310 295 279 259 244 233 227 223 219 218 214 203 200 201 200 201 200 198 196 195 200 204 207 207 206 203 202 199 189 184 181 173 166 155 152 152 147 121 92 62 39 55 54 106 126 134 137 137 147 155 163 165 167 171 176 177 170 168 165 164 170 164 166 175 173 168 161 157 156
358 351 344 338 333 326 322 320 315 313 312 316 323 329 335 337 338 342 343 336 322 300 272 252 236 227 223 218 216 212 202 200 199 196 199 199 197 194 193 199 204 206 206 204 203 204 201 191 184 179 172 164 157 159 157 153 132 105 98 206 86 84 126 133 141 144 143 148 156 175 176 169 174 179 175 163 165 170 169 170 165 169 175 173 171 163 157 157
355 351 346 342 337 331 324 318 311 307 305 308 312 317 322 324 328 332 340 345 344 331 292 259 240 228 223 219 214 208 202 201 197 193 197 197 195 193 192 197 204 205 202 202 202 204 204 193 183 175 168 162 159 162 156 138 115 107 146 199 149 132 138 143 154 154 156 161 163 175 177 174 174 175 173 164 168 174 172 171 167 172 176 172 172 168 161 160
353 351 348 345 344 338 330 321 312 307 307 309 309 312 313 317 320 321 326 334 342 343 316 264 237 226 221 219 213 204 201 201 195 192 193 195 194 192 191 192 200 204 201 201 202 203 203 195 184 175 168 166 166 168 164 129 99 132 191 185 163 150 140 147 162 160 161 167 164 169 175 175 173 172 173 167 170 177 176 173 170 174 177 172 173 171 166 164
353 352 351 349 348 346 341 330 319 315 318 319 317 317 315 317 318 317 317 320 325 328 322 282 236 223 218 217 211 202 201 199 196 194 191 193 194 192 191 190 194 198 199 203 203 201 199 193 190 183 175 172 171 172 168 143 123 161 200 198 173 141 137 140 161 168 167 170 169 171 173 172 172 175 177 172 172 180 184 176 171 175 178 174 173 172 169 168
354 355 355 353 352 352 352 345 339 338 339 341 340 334 326 321 319 317 312 312 312 308 310 294 237 219 218 215 208 202 201 198 196 195 191 191 195 193 192 191 190 190 193 200 201 199 196 193 194 189 182 178 176 176 170 164 149 159 206 222 172 135 141 139 155 174 177 178 174 170 174 176 178 178 181 180 177 183 188 180 173 175 178 175 174 173 171 171
355 358 358 359 357 356 358 358 359 360 360 356 350 343 335 329 325 319 312 307 306 300 294 282 240 217 213 209 206 203 201 198 195 195 192 191 195 195 193 193 191 188 187 188 191 196 195 194 194 190 185 183 181 174 170 179 173 174 202 227 181 145 149 148 157 176 181 185 181 174 180 185 184 182 181 185 186 188 186 181 177 176 178 177 176 175 174 175
353 357 0 1 359 359 360 1 2 2 1 354 348 344 341 339 333 327 317 305 299 298 288 266 240 216 207 205 205 204 201 197 195 196 194 192 194 197 196 194 194 191 185 179 182 190 192 192 192 190 189 187 183 169 170 186 189 191 194 214 203 161 155 158 161 175 177 183 189 184 189 191 187 187 187 189 193 192 185 182 180 178 180 179 177 177 177 177
349 353 358 359 359 360 359 1 3 0 357 352 349 345 343 344 342 333 319 308 302 300 282 248 238 220 208 206 203 202 199 192 194 198 197 196 194 196 197 196 197 193 184 179 181 185 186 188 191 192 194 189 179 168 179 193 196 201 191 199 202 168 158 162 163 173 172 176 187 190 195 195 190 192 193 190 191 192 187 185 183 180 182 181 179 179 178 177
344 348 354 357 356 356 358 360 0 359 355 350 348 346 347 349 348 339 320 317 326 311 274 244 232 216 207 206 199 194 191 186 190 195 195 197 198 198 197 196 198 193 186 182 182 183 183 187 191 194 197 189 179 176 185 196 200 202 199 198 192 170 160 164 167 176 177 179 187 190 196 196 194 196 197 193 188 190 190 189 186 182 184 184 182 182 179 177
339 344 350 354 353 353 355 356 358 360 357 353 351 348 347 349 351 344 325 328 347 330 275 251 223 207 203 201 193 188 186 185 188 189 191 195 198 199 197 197 197 192 189 187 184 183 184 188 193 194 196 191 186 183 182 194 202 200 202 201 188 175 169 172 174 178 184 192 193 193 196 197 199 198 199 197 189 189 192 193 191 186 187 187 186 185 182 179
333 339 345 350 351 351 350 353 358 1 0 356 353 351 351 349 348 344 329 332 343 322 285 231 195 177 182 186 186 191 191 187 184 183 188 193 195 195 195 196 195 192 191 190 186 184 185 191 193 194 196 194 193 189 186 194 201 201 202 202 190 183 183 187 188 181 184 192 197 201 201 198 201 202 202 200 193 192 193 196 195 191 190 190 190 189 185 181
327 333 340 345 348 349 346 351 0 3 1 357 356 356 356 349 345 354 345 342 344 313 243 175 166 139 154 174 189 198 194 185 180 177 182 188 190 190 191 192 191 190 192 192 187 184 186 191 193 194 194 193 194 194 194 201 209 209 206 207 204 192 190 199 202 195 192 193 196 207 210 202 203 206 207 204 199 197 195 196 198 195 193 193 193 192 189 183
320 327 334 340 345 347 345 350 3 7 1 359 0 359 2 6 11 17 2 346 346 324 183 165 154 126 140 177 207 209 195 180 176 176 177 178 181 185 189 190 186 186 192 193 189 185 188 193 195 195 193 192 195 194 196 211 221 217 211 213 219 211 203 205 207 206 205 202 199 206 217 213 210 214 216 210 206 203 200 197 198 198 196 197 195 193 190 183
314 320 327 336 342 345 346 351 2 7 2 1 2 1 11 24 24 19 19 1 352 2 155 145 129 116 123 175 217 217 200 182 174 177 179 173 174 179 185 187 183 183 189 194 191 188 191 199 198 194 192 194 200 199 192 192 198 201 205 214 220 223 220 216 214 213 211 209 207 206 213 218 218 221 223 215 210 208 204 200 199 198 197 198 197 193 190 183
309 313 320 330 336 344 349 353 358 1 1 1 5 11 18 26 22 17 19 18 26 115 135 132 123 112 114 165 212 219 203 188 178 181 183 178 176 177 182 184 182 183 188 192 192 191 196 202 198 194 196 199 205 207 197 190 189 187 191 202 208 214 218 217 216 216 215 212 213 215 214 219 223 223 226 221 214 210 206 204 202 199 197 198 198 194 192 187
303 307 314 321 328 342 352 358 0 360 4 9 17 23 22 26 25 18 17 27 62 124 128 123 122 121 126 147 157 176 194 190 186 188 187 183 179 178 183 184 181 183 189 192 192 193 200 204 199 196 201 204 209 210 202 198 199 193 191 193 192 198 205 210 213 216 222 218 218 224 222 224 229 224 224 220 214 210 206 204 204 203 200 198 199 197 193 189
296 302 310 313 318 339 356 7 12 13 22 36 38 29 24 25 24 20 22 34 70 125 132 119 125 126 126 134 108 103 178 187 187 189 189 185 178 182 188 185 183 184 188 193 194 195 202 206 203 203 206 209 213 213 208 207 208 206 203 198 192 197 206 212 217 217 217 220 221 219 220 225 225 218 213 208 210 212 209 206 205 204 202 199 199 199 197 193
289 295 305 307 312 332 356 17 32 38 43 54 45 30 27 30 33 34 32 40 67 113 153 139 138 125 115 143 101 85 161 170 176 184 188 184 179 191 197 189 188 187 187 193 196 201 204 205 204 207 211 215 216 216 214 212 216 219 214 207 204 218 226 215 225 218 205 210 215 206 206 224 215 208 211 207 207 213 213 210 208 205 203 202 201 201 201 198
284 287 299 302 308 321 339 33 55 52 46 48 36 29 33 36 42 41 39 50 56 65 106 140 162 158 130 166 177 105 151 157 170 180 186 185 184 194 198 196 193 189 189 194 199 207 209 207 202 206 214 217 218 218 217 216 221 225 221 215 213 230 244 234 233 220 204 205 212 207 205 225 217 209 214 215 208 211 215 213 210 207 206 205 203 204 204 201
279 280 291 294 307 315 304 62 67 56 47 49 29 26 33 35 37 26 24 37 29 36 63 99 189 169 137 189 225 185 165 168 171 180 189 188 194 196 193 202 198 192 193 197 204 212 215 213 208 209 217 218 219 218 216 218 223 224 221 219 224 237 258 266 248 228 220 213 207 208 210 226 241 223 215 212 206 207 214 214 212 208 206 206 204 206 206 203
276 277 284 287 306 307 276 72 75 70 68 68 34 25 25 30 42 30 24 36 16 22 33 24 345 101 155 221 216 193 179 177 174 186 192 192 204 201 197 210 203 198 202 206 210 214 218 218 214 217 223 222 222 221 218 218 223 223 220 223 235 252 281 279 248 224 223 213 196 200 207 220 259 234 213 206 206 209 213 214 213 209 206 205 204 206 206 205
280 276 278 283 299 284 119 82 86 98 104 84 48 32 26 29 47 40 53 55 24 25 19 13 13 337 268 264 223 195 169 173 179 186 191 197 203 198 201 211 201 202 210 219 220 218 220 220 216 218 225 227 221 220 220 217 218 220 221 228 238 259 275 246 219 208 202 207 210 204 200 206 262 241 212 204 212 221 218 213 212 211 210 206 204 206 206 206
284 275 275 279 256 193 125 104 114 122 118 86 61 55 50 59 75 46 59 14 16 21 15 15 28 85 159 188 195 188 176 180 187 179 189 204 201 197 204 201 195 199 210 223 227 227 226 223 218 217 222 223 216 216 217 214 214 213 217 230 237 248 234 205 199 196 178 229 241 221 203 204 251 263 221 211 222 236 221 213 210 210 211 210 206 206 207 208
280 272 267 241 179 162 137 130 141 135 116 102 104 94 73 64 61 59 47 4 12 13 14 19 32 119 140 127 145 168 183 194 195 183 187 201 201 203 209 201 193 197 211 227 231 234 232 228 224 219 219 219 215 215 212 210 208 199 203 222 217 183 185 184 186 182 159 243 249 234 212 208 224 249 244 236 245 253 231 216 210 205 208 211 208 206 207 209
265 258 223 179 164 158 144 145 154 135 106 133 151 132 94 56 50 47 29 16 15 13 16 18 29 96 103 94 114 154 172 174 187 187 187 198 204 207 207 201 197 205 225 232 231 242 238 232 228 221 218 218 217 218 210 206 204 193 198 209 182 125 153 172 148 153 211 235 245 239 208 209 233 245 263 272 257 252 248 227 212 204 203 208 207 205 207 209
226 215 173 158 154 148 144 151 147 117 87 132 156 130 113 80 50 38 32 31 29 25 27 40 68 84 80 77 99 147 164 157 183 190 185 190 196 201 208 211 214 220 230 225 228 251 248 235 228 220 217 216 215 216 209 204 201 196 199 199 176 129 114 171 344 35 246 239 247 247 204 213 247 253 260 265 257 249 245 235 218 206 201 205 207 206 207 209
183 170 147 142 148 148 153 153 128 98 68 68 177 158 101 82 58 39 36 32 30 34 50 76 90 98 83 69 75 115 142 124 135 177 177 179 181 188 209 223 229 232 234 234 245 261 252 231 222 215 213 215 213 212 211 208 203 199 200 203 197 185 164 164 193 199 216 210 190 196 199 218 240 242 256 261 253 240 231 229 224 210 205 207 209 208 208 210
144 139 133 133 142 150 158 152 123 110 91 87 154 153 92 73 53 35 30 24 21 25 46 94 107 114 88 70 64 87 120 115 120 147 145 159 171 162 178 210 230 235 238 245 254 255 252 247 223 212 211 214 214 213 212 211 210 205 202 206 210 207 203 187 195 209 209 146 140 181 204 240 237 240 254 256 249 235 219 221 220 208 205 209 211 209 208 210
133 128 125 122 129 135 140 137 129 129 106 93 110 99 77 65 42 27 21 16 14 12 15 130 129 103 89 73 65 75 98 135 158 148 112 118 138 128 120 117 179 229 236 240 236 236 252 249 211 209 211 210 210 214 215 213 211 205 203 207 211 216 226 214 192 207 207 163 169 193 221 247 243 251 253 241 242 233 210 213 213 202 203 209 212 209 206 208
129 126 123 118 122 124 124 125 122 119 103 89 91 81 68 54 35 26 20 16 13 7 10 119 103 72 81 77 79 86 96 127 147 155 124 104 97 94 102 105 71 242 236 238 235 235 254 241 196 204 213 207 202 206 211 215 214 205 204 208 207 213 228 222 188 170 174 139 205 207 229 243 231 244 247 230 230 225 204 204 207 204 205 207 210 211 210 210
131 126 124 121 122 122 120 120 114 107 99 88 82 73 59 45 36 30 20 19 25 25 37 87 89 72 79 83 91 99 113 128 133 149 152 114 77 74 82 102 53 12 266 231 236 232 248 250 209 203 212 206 202 204 204 209 216 218 216 209 201 199 209 206 191 150 164 147 267 220 234 240 227 232 240 224 219 217 205 201 205 209 210 209 206 206 209 211
139 128 125 122 121 121 121 123 115 107 102 89 78 67 51 39 31 25 21 28 41 42 51 75 90 93 88 89 101 111 123 131 132 145 151 117 86 58 55 82 53 9 346 210 248 242 241 251 224 202 205 202 202 207 206 201 202 209 215 205 201 205 201 195 199 192 170 166 226 228 244 240 231 232 235 226 216 212 206 204 204 206 211 213 209 204 203 203
152 139 133 127 123 125 131 132 120 106 97 83 73 65 53 45 37 22 30 47 41 45 58 68 94 116 107 100 109 118 124 123 125 131 126 115 120 38 51 165 6 22 14 327 322 293 249 236 236 198 197 197 196 202 205 198 193 192 194 193 194 200 196 189 196 196 177 168 159 160 236 232 225 226 227 225 215 208 206 205 203 202 205 207 208 210 210 207
163 151 141 137 132 136 140 134 128 123 102 71 63 71 60 56 55 29 17 32 29 45 60 66 95 117 124 123 119 122 126 125 121 113 102 115 123 44 172 222 300 1 8 337 334 320 284 227 256 199 185 186 185 191 195 193 192 188 188 191 191 196 190 176 178 194 189 188 178 172 204 219 214 216 220 221 212 206 205 203 201 202 201 200 202 206 208 210
166 154 146 143 139 144 143 128 151 164 126 64 64 61 50 52 53 8 348 3 32 49 52 75 97 95 100 127 137 141 135 127 125 117 94 109 119 51 142 213 279 339 351 341 355 346 343 337 279 155 160 170 175 184 190 191 192 190 190 191 193 202 202 187 176 184 184 188 191 188 204 219 208 209 214 215 210 205 204 201 200 202 204 201 201 203 204 206
172 158 148 143 139 140 136 141 186 176 137 140 126 38 29 338 324 322 316 330 4 29 39 75 92 76 66 76 130 156 144 127 126 132 110 97 103 59 89 207 259 328 342 335 360 351 339 358 115 127 130 140 147 160 175 183 191 195 197 195 194 203 208 205 203 191 184 183 180 174 190 218 207 207 210 210 206 204 205 203 199 202 207 207 205 207 207 208
188 171 157 153 150 136 86 160 179 169 164 173 182 291 341 312 317 304 258 272 310 345 21 49 58 57 54 50 88 154 146 130 125 133 125 96 88 65 59 213 249 307 331 351 18 14 12 28 137 137 119 123 129 137 153 166 178 185 188 192 197 202 205 206 204 190 185 187 185 181 189 199 203 207 209 207 205 205 206 206 203 203 207 211 214 214 214 214
198 189 182 173 171 161 80 181 186 176 181 189 183 190 293 338 341 332 301 261 272 305 349 42 71 47 25 16 56 124 138 144 135 129 126 105 94 84 61 129 239 292 317 11 42 55 61 60 84 120 114 122 126 121 133 147 159 165 168 176 187 197 202 202 194 184 184 191 192 193 194 191 197 203 206 206 208 210 209 208 208 206 204 208 213 215 216 216
202 204 205 194 195 218 213 203 210 192 191 199 195 200 284 360 1 350 349 321 234 232 352 142 125 40 319 270 234 169 133 145 147 137 134 125 107 98 73 71 98 265 289 46 69 79 79 72 72 82 93 105 106 97 99 125 143 147 153 161 168 181 192 195 192 190 191 192 193 197 199 196 197 200 203 206 210 214 215 212 208 206 205 206 206 208 211 214
208 214 217 210 202 200 202 213 214 195 196 204 209 222 260 10 356 330 323 317 226 198 196 163 181 298 276 211 206 196 154 140 152 154 145 144 119 92 77 63 69 107 194 137 110 104 97 82 75 80 89 93 95 93 86 100 129 138 148 158 160 168 181 188 195 199 198 196 198 199 198 200 202 202 204 207 210 214 217 213 207 206 208 208 207 208 210 212
213 211 214 215 199 184 195 209 196 189 201 208 219 233 232 351 330 314 303 304 277 229 240 247 242 262 246 200 193 182 171 160 158 162 152 152 182 357 6 1 23 83 162 151 136 140 146 124 89 86 96 95 92 92 82 79 104 135 153 159 158 162 174 183 191 200 202 205 214 206 199 197 199 203 207 209 211 213 214 212 208 206 207 208 209 212 212 212
215 209 207 211 202 191 201 215 216 216 222 228 232 227 223 312 320 323 317 303 283 256 254 266 275 272 248 222 224 209 191 176 155 152 160 159 270 321 339 343 346 18 56 133 140 141 143 141 128 104 107 106 94 89 86 78 85 123 142 148 151 149 151 172 189 198 198 203 215 213 204 198 194 202 209 210 211 213 213 211 210 210 211 212 215 218 218 219
215 210 206 207 208 206 208 216 225 229 231 243 246 230 242 304 317 328 330 310 287 273 271 286 297 297 264 223 225 226 204 187 168 161 177 354 13 4 358 356 350 354 2 64 151 152 144 146 151 140 112 100 91 92 93 81 67 103 122 127 139 141 139 152 168 177 184 196 205 206 204 200 192 196 209 211 211 212 212 212 212 214 217 221 225 228 232 238
220 217 212 213 215 216 215 215 222 227 225 235 247 242 267 303 315 322 324 315 292 279 292 292 294 314 293 202 197 202 186 173 163 163 196 244 8 18 5 348 337 347 358 5 155 168 164 159 165 168 146 96 56 62 93 75 53 101 109 100 103 111 120 135 150 160 168 192 200 196 198 200 196 193 200 209 212 213 213 213 213 215 218 224 230 237 247 256
225 224 222 221 219 217 217 214 215 222 224 228 242 256 277 299 312 320 318 310 300 295 306 278 237 246 303 210 183 174 158 150 147 145 159 210 312 349 343 331 321 334 355 6 63 155 170 172 175 181 183 173 51 28 29 35 35 35 36 41 53 81 95 106 138 166 158 146 182 191 194 205 208 201 197 202 209 213 213 211 211 216 221 227 236 250 261 267
Height
3133 3133 3132 3131 3131 3130 3129 3129 3128 3128 3127 3127 3127 3127 3127 3127 3127 3128 3128 3128 3128 3129 3129 3130 3130 3131 3132 3133 3134 3135 3136 3137 3138 3139 3141 3142 3143 3145 3147 3148 3149 3150 3151 3152 3154 3155 3156 3157 3158 3159 3160 3161 3161 3161 3161 3161 3161 3161 3161 3161 3160 3159 3159 3159 3159 3159 3160 3161 3163 3165 3167 3169 3170 3171 3173 3174 3176 3178 3179 3180 3182 3183 3186 3189 3191 3192 3192 3194
3133 3132 3132 3131 3130 3130 3129 3128 3128 3127 3126 3126 3126 3125 3125 3125 3125 3126 3126 3127 3127 3127 3127 3128 3129 3130 3130 3131 3132 3133 3134 3136 3137 3139 3140 3141 3143 3144 3146 3147 3149 3149 3150 3152 3153 3155 3157 3157 3158 3159 3160 3161 3161 3161 3161 3161 3161 3161 3161 3161 3160 3160 3159 3158 3159 3159 3161 3163 3164 3166 3168 3170 3172 3173 3174 3175 3176 3178 3179 3180 3182 3185 3187 3189 3191 3192 3194 3195
3133 3132 3131 3130 3130 3129 3129 3128 3127 3127 3126 3125 3125 3125 3124 3124 3124 3124 3124 3125 3125 3125 3126 3126 3127 3128 3129 3129 3130 3132 3133 3134 3136 3138 3138 3140 3142 3143 3145 3146 3148 3149 3150 3152 3153 3155 3157 3158 3159 3160 3160 3161 3161 3162 3162 3162 3162 3162 3162 3161 3161 3160 3159 3158 3158 3159 3162 3165 3166 3167 3169 3171 3173 3174 3175 3177 3177 3179 3181 3181 3183 3185 3187 3189 3191 3193 3195 3197
3132 3131 3130 3130 3129 3129 3128 3127 3127 3126 3126 3125 3125 3124 3124 3123 3123 3122 3122 3123 3123 3123 3124 3124 3125 3126 3127 3128 3129 3130 3132 3133 3135 3136 3137 3139 3140 3142 3144 3145 3147 3148 3149 3151 3152 3154 3156 3157 3158 3159 3160 3160 3161 3162 3162 3162 3162 3163 3163 3162 3161 3160 3159 3158 3158 3160 3163 3166 3168 3169 3170 3172 3174 3175 3177 3178 3179 3180 3182 3185 3185 3187 3188 3190 3192 3194 3196 3198
3132 3131 3130 3129 3128 3128 3127 3126 3126 3125 3125 3124 3124 3123 3123 3122 3122 3121 3121 3121 3121 3122 3122 3123 3123 3124 3125 3126 3127 3129 3131 3132 3133 3135 3136 3137 3139 3140 3142 3144 3146 3147 3148 3150 3152 3153 3155 3156 3157 3158 3159 3160 3161 3162 3162 3163 3163 3164 3163 3163 3162 3160 3159 3158 3159 3160 3164 3167 3169 3171 3171 3173 3174 3176 3178 3180 3181 3182 3184 3187 3188 3189 3191 3192 3193 3195 3198 3199
3132 3131 3130 3129 3128 3127 3126 3126 3125 3124 3124 3123 3123 3123 3122 3122 3121 3120 3120 3119 3119 3120 3120 3121 3122 3122 3123 3124 3126 3127 3129 3131 3132 3133 3134 3136 3137 3139 3141 3143 3144 3145 3147 3149 3151 3153 3154 3155 3156 3157 3159 3160 3161 3162 3163 3163 3164 3164 3164 3163 3162 3162 3162 3161 3161 3163 3166 3169 3170 3172 3173 3174 3176 3177 3179 3181 3183 3185 3186 3188 3189 3191 3193 3195 3196 3197 3199 3201
3132 3131 3130 3129 3128 3127 3126 3125 3125 3124 3123 3123 3122 3122 3122 3121 3120 3120 3119 3118 3118 3118 3119 3119 3120 3121 3121 3123 3124 3126 3128 3129 3129 3131 3132 3134 3136 3138 3140 3142 3143 3145 3146 3148 3150 3152 3153 3155 3156 3157 3159 3160 3162 3162 3163 3163 3164 3165 3164 3163 3163 3164 3164 3163 3164 3166 3169 3171 3172 3174 3175 3176 3177 3178 3180 3181 3184 3186 3187 3189 3190 3192 3194 3196 3197 3198 3200 3202
3132 3131 3129 3128 3128 3127 3126 3125 3124 3123 3123 3122 3122 3122 3121 3121 3120 3119 3118 3118 3117 3117 3117 3117 3118 3119 3120 3121 3122 3124 3126 3127 3128 3129 3131 3133 3135 3136 3138 3140 3142 3144 3146 3148 3150 3151 3152 3154 3156 3157 3159 3161 3162 3163 3163 3163 3164 3165 3165 3163 3164 3165 3165 3165 3166 3167 3169 3172 3173 3175 3176 3177 3178 3180 3181 3183 3185 3187 3188 3190 3191 3193 3195 3197 3199 3200 3201 3203
3131 3130 3129 3128 3127 3126 3125 3124 3124 3123 3122 3122 3122 3121 3121 3120 3119 3119 3118 3117 3117 3117 3116 3116 3117 3117 3118 3119 3120 3123 3124 3125 3127 3128 3129 3131 3133 3135 3137 3139 3141 3143 3146 3147 3149 3150 3152 3154 3156 3157 3160 3161 3162 3162 3163 3163 3164 3165 3165 3164 3164 3165 3166 3166 3167 3168 3170 3172 3174 3176 3177 3178 3179 3181 3182 3184 3185 3187 3188 3190 3192 3194 3196 3198 3200 3201 3202 3204
3131 3130 3129 3128 3127 3126 3125 3124 3123 3122 3122 3121 3121 3120 3120 3119 3119 3118 3117 3117 3116 3116 3115 3115 3115 3116 3116 3117 3119 3121 3122 3124 3125 3126 3127 3130 3132 3134 3136 3138 3140 3143 3145 3146 3148 3149 3151 3155 3157 3158 3160 3161 3161 3162 3162 3163 3164 3164 3164 3164 3164 3165 3166 3167 3169 3170 3172 3173 3175 3176 3178 3179 3180 3181 3183 3184 3186 3188 3189 3191 3192 3194 3196 3199 3201 3203 3204 3205
3131 3130 3128 3127 3126 3125 3124 3123 3123 3122 3121 3121 3120 3120 3119 3119 3118 3117 3117 3116 3116 3115 3115 3114 3114 3114 3115 3116 3117 3119 3121 3122 3124 3125 3126 3128 3130 3133 3134 3136 3139 3141 3144 3146 3147 3149 3152 3155 3157 3158 3159 3160 3161 3161 3162 3163 3163 3164 3164 3164 3165 3167 3168 3169 3171 3172 3174 3175 3175 3177 3178 3179 3181 3182 3183 3185 3186 3188 3190 3191 3193 3195 3197 3199 3201 3203 3204 3206
3131 3130 3128 3127 3126 3125 3124 3123 3122 3121 3121 3120 3120 3119 3119 3118 3117 3117 3116 3115 3115 3114 3114 3113 3113 3113 3114 3115 3116 3117 3119 3121 3123 3124 3126 3127 3129 3131 3133 3135 3137 3139 3142 3145 3147 3149 3152 3154 3156 3157 3158 3159 3160 3161 3162 3162 3163 3164 3165 3165 3166 3169 3170 3171 3172 3173 3175 3176 3176 3177 3179 3180 3181 3182 3184 3186 3187 3188 3190 3192 3193 3195 3197 3199 3202 3203 3205 3206
3130 3129 3128 3127 3126 3125 3124 3123 3122 3121 3121 3120 3120 3119 3118 3117 3117 3116 3115 3114 3113 3113 3113 3112 3112 3112 3112 3114 3115 3116 3118 3120 3122 3124 3126 3127 3129 3131 3133 3134 3136 3137 3139 3143 3146 3148 3150 3152 3155 3157 3158 3159 3160 3160 3161 3161 3163 3164 3165 3166 3168 3170 3171 3171 3172 3173 3175 3177 3177 3177 3179 3180 3181 3182 3184 3186 3187 3188 3190 3192 3194 3195 3197 3199 3201 3203 3205 3206
3130 3129 3128 3127 3126 3125 3124 3123 3122 3121 3121 3120 3119 3119 3118 3117 3116 3115 3114 3113 3112 3111 3111 3111 3111 3111 3111 3112 3113 3115 3117 3120 3122 3124 3125 3127 3128 3130 3132 3133 3135 3136 3138 3141 3144 3146 3149 3152 3154 3156 3157 3158 3159 3160 3160 3161 3162 3163 3165 3167 3168 3170 3171 3171 3172 3174 3174 3176 3177 3178 3178 3180 3181 3182 3183 3185 3187 3189 3190 3192 3194 3195 3197 3199 3201 3203 3205 3207
3129 3128 3127 3126 3125 3124 3124 3123 3122 3121 3120 3119 3119 3118 3117 3116 3115 3114 3112 3111 3110 3110 3110 3110 3110 3110 3110 3111 3112 3114 3117 3120 3122 3122 3124 3126 3127 3129 3130 3132 3134 3136 3138 3139 3141 3144 3147 3150 3153 3154 3156 3157 3158 3159 3160 3161 3162 3163 3164 3166 3168 3170 3170 3171 3172 3173 3174 3175 3177 3178 3179 3180 3181 3182 3183 3184 3186 3188 3190 3192 3194 3195 3198 3200 3202 3203 3205 3207
3129 3127 3126 3126 3125 3124 3123 3122 3122 3121 3120 3119 3118 3117 3116 3115 3114 3113 3111 3110 3110 3109 3109 3109 3109 3110 3110 3110 3112 3113 3116 3118 3119 3120 3122 3124 3126 3127 3129 3131 3133 3135 3137 3138 3139 3142 3145 3148 3151 3153 3155 3156 3158 3159 3159 3160 3161 3162 3164 3166 3168 3170 3170 3171 3172 3174 3175 3175 3176 3177 3179 3180 3181 3182 3183 3184 3186 3188 3190 3192 3194 3196 3198 3200 3202 3203 3205 3207
3128 3127 3126 3125 3124 3124 3123 3122 3121 3120 3119 3118 3117 3116 3115 3114 3113 3112 3110 3109 3109 3108 3108 3108 3108 3109 3110 3110 3111 3113 3114 3115 3117 3119 3121 3122 3123 3125 3128 3130 3132 3134 3136 3137 3139 3141 3144 3146 3149 3152 3154 3156 3157 3158 3158 3159 3159 3160 3163 3165 3168 3170 3171 3171 3172 3173 3175 3176 3177 3177 3179 3180 3181 3182 3183 3184 3186 3187 3189 3192 3194 3196 3198 3200 3202 3204 3205 3207
3128 3127 3126 3125 3124 3123 3123 3122 3121 3120 3119 3118 3117 3115 3114 3113 3112 3111 3110 3109 3109 3108 3108 3108 3108 3109 3110 3110 3111 3112 3113 3114 3117 3119 3120 3121 3122 3124 3127 3129 3131 3133 3135 3137 3138 3140 3142 3145 3147 3150 3152 3154 3156 3157 3157 3157 3158 3160 3162 3165 3167 3170 3171 3171 3171 3172 3173 3175 3177 3177 3178 3180 3181 3182 3183 3184 3185 3187 3189 3192 3194 3196 3198 3200 3202 3203 3205 3207
3128 3127 3126 3125 3124 3123 3122 3122 3121 3119 3118 3117 3116 3115 3114 3113 3112 3111 3110 3109 3108 3108 3108 3108 3109 3109 3110 3111 3111 3111 3112 3115 3117 3119 3120 3121 3122 3123 3125 3127 3129 3132 3134 3136 3137 3139 3141 3143 3146 3148 3150 3152 3154 3156 3157 3158 3159 3161 3163 3165 3167 3169 3171 3171 3171 3172 3173 3174 3176 3176 3177 3180 3181 3182 3183 3184 3185 3187 3189 3191 3193 3195 3197 3199 3201 3203 3205 3207
3127 3126 3125 3124 3123 3123 3122 3121 3120 3119 3118 3117 3116 3115 3114 3113 3112 3112 3111 3109 3108 3108 3108 3109 3110 3110 3111 3111 3111 3111 3113 3115 3118 3119 3120 3121 3122 3123 3124 3126 3128 3130 3133 3135 3137 3139 3141 3142 3143 3145 3149 3152 3154 3157 3158 3159 3160 3162 3163 3165 3167 3169 3171 3172 3172 3172 3173 3174 3175 3176 3177 3179 3181 3181 3183 3184 3185 3186 3187 3189 3192 3194 3197 3199 3201 3203 3205 3208
3127 3126 3125 3124 3123 3122 3122 3121 3120 3119 3118 3117 3116 3115 3114 3113 3113 3112 3111 3110 3108 3108 3109 3110 3111 3111 3112 3112 3112 3112 3114 3116 3118 3119 3119 3120 3121 3122 3124 3125 3126 3129 3132 3135 3137 3139 3140 3141 3142 3146 3151 3153 3155 3157 3158 3159 3160 3162 3163 3165 3167 3169 3170 3171 3172 3172 3173 3173 3174 3175 3176 3177 3179 3181 3182 3183 3183 3185 3187 3189 3191 3194 3196 3198 3200 3202 3205 3207
3127 3126 3125 3124 3123 3122 3122 3121 3120 3119 3118 3117 3116 3116 3115 3114 3113 3112 3111 3110 3109 3108 3110 3111 3112 3112 3112 3112 3112 3113 3114 3116 3118 3119 3119 3120 3121 3122 3124 3125 3126 3129 3131 3134 3136 3138 3139 3140 3143 3148 3151 3152 3154 3156 3158 3159 3160 3161 3163 3164 3166 3167 3168 3170 3171 3172 3172 3173 3173 3174 3175 3176 3177 3179 3181 3181 3182 3184 3187 3189 3192 3194 3196 3198 3200 3202 3204 3206
3126 3125 3125 3124 3123 3122 3121 3121 3120 3119 3118 3118 3117 3117 3116 3115 3114 3113 3112 3111 3110 3111 3111 3112 3113 3113 3113 3113 3113 3114 3115 3116 3118 3119 3120 3121 3122 3123 3124 3125 3126 3129 3131 3133 3135 3137 3139 3141 3144 3148 3150 3151 3153 3155 3157 3158 3159 3161 3162 3163 3164 3165 3167 3168 3170 3171 3173 3174 3175 3175 3175 3176 3176 3177 3178 3180 3181 3184 3186 3189 3191 3193 3195 3197 3199 3202 3203 3205
3126 3125 3124 3123 3122 3122 3121 3121 3120 3119 3119 3118 3118 3117 3117 3116 3115 3115 3114 3113 3113 3113 3113 3113 3113 3114 3114 3114 3114 3115 3115 3116 3118 3119 3120 3122 3122 3123 3124 3125 3127 3129 3131 3133 3135 3137 3140 3142 3144 3146 3148 3150 3152 3154 3156 3157 3159 3160 3161 3162 3164 3165 3166 3167 3169 3170 3172 3174 3175 3176 3177 3176 3175 3175 3176 3178 3180 3182 3184 3187 3189 3191 3193 3196 3198 3200 3202 3204
3125 3124 3124 3123 3122 3122 3121 3121 3120 3120 3119 3119 3119 3118 3117 3117 3116 3116 3115 3114 3114 3114 3114 3114 3114 3115 3115 3115 3115 3116 3116 3118 3119 3120 3121 3122 3123 3124 3125 3126 3127 3129 3131 3133 3136 3138 3140 3142 3144 3146 3147 3149 3151 3153 3155 3157 3158 3159 3160 3162 3163 3164 3165 3167 3168 3169 3171 3172 3173 3175 3176 3175 3174 3174 3175 3177 3179 3180 3182 3184 3187 3189 3191 3194 3196 3198 3201 3203
3124 3124 3123 3122 3122 3122 3121 3121 3121 3120 3120 3120 3119 3119 3118 3118 3117 3117 3116 3116 3116 3115 3115 3115 3115 3115 3116 3116 3117 3117 3117 3118 3119 3121 3122 3123 3124 3124 3125 3126 3127 3130 3131 3133 3136 3137 3139 3141 3143 3145 3146 3148 3150 3152 3155 3157 3158 3159 3160 3162 3163 3164 3165 3165 3166 3168 3169 3169 3171 3173 3174 3174 3173 3173 3175 3177 3178 3179 3180 3183 3185 3187 3189 3192 3194 3197 3199 3202
3124 3123 3122 3122 3122 3122 3121 3121 3121 3121 3120 3120 3119 3119 3119 3118 3118 3118 3117 3117 3117 3116 3116 3116 3116 3116 3116 3117 3117 3118 3118 3119 3120 3121 3122 3123 3124 3125 3126 3127 3128 3130 3131 3133 3135 3136 3137 3140 3143 3144 3145 3146 3148 3151 3154 3156 3157 3158 3160 3162 3163 3164 3164 3164 3165 3166 3167 3168 3171 3172 3172 3173 3171 3172 3174 3175 3177 3178 3178 3180 3183 3185 3187 3190 3193 3195 3198 3200
3123 3122 3122 3122 3121 3121 3121 3121 3121 3121 3120 3120 3120 3120 3119 3119 3119 3118 3118 3118 3118 3117 3117 3117 3116 3116 3116 3117 3117 3118 3119 3119 3120 3121 3122 3124 3124 3125 3126 3127 3129 3130 3132 3133 3134 3135 3137 3139 3142 3143 3144 3145 3147 3150 3153 3155 3156 3158 3160 3162 3163 3163 3164 3164 3165 3166 3167 3169 3170 3170 3171 3172 3170 3170 3172 3174 3175 3175 3175 3177 3180 3182 3185 3188 3191 3194 3196 3199
3122 3122 3122 3121 3121 3121 3121 3121 3121 3121 3121 3121 3120 3120 3119 3119 3119 3119 3118 3119 3119 3118 3118 3117 3116 3116 3116 3116 3117 3118 3119 3120 3121 3121 3122 3123 3124 3126 3127 3127 3129 3130 3132 3132 3133 3135 3137 3139 3141 3142 3143 3144 3146 3149 3151 3153 3155 3158 3160 3161 3161 3162 3162 3163 3165 3166 3168 3169 3168 3168 3169 3170 3168 3167 3169 3172 3172 3171 3171 3174 3177 3181 3184 3187 3190 3193 3195 3198
3122 3121 3121 3121 3121 3121 3121 3122 3122 3121 3121 3121 3121 3121 3120 3120 3119 3119 3120 3120 3119 3119 3118 3117 3116 3116 3116 3116 3117 3118 3119 3120 3121 3121 3122 3123 3125 3126 3127 3127 3129 3130 3131 3132 3133 3134 3135 3137 3138 3139 3140 3142 3145 3148 3149 3152 3154 3156 3159 3160 3160 3161 3161 3164 3165 3166 3170 3170 3167 3167 3169 3169 3168 3165 3165 3168 3167 3167 3169 3173 3176 3179 3183 3186 3189 3191 3194 3196
3121 3121 3121 3121 3121 3121 3122 3122 3122 3122 3121 3121 3121 3121 3121 3121 3120 3120 3121 3121 3120 3119 3118 3117 3116 3116 3116 3116 3117 3118 3119 3120 3121 3121 3122 3123 3125 3126 3127 3128 3128 3130 3131 3131 3132 3133 3134 3135 3136 3137 3139 3141 3144 3146 3147 3150 3152 3155 3158 3158 3159 3160 3162 3165 3166 3167 3171 3169 3166 3167 3169 3170 3168 3164 3164 3165 3165 3166 3168 3171 3174 3177 3180 3183 3186 3190 3192 3195
3121 3121 3121 3121 3121 3121 3122 3122 3122 3122 3122 3122 3122 3122 3122 3121 3121 3121 3122 3122 3120 3119 3118 3117 3116 3116 3117 3117 3117 3118 3119 3120 3120 3121 3122 3123 3125 3126 3127 3128 3129 3129 3130 3131 3131 3132 3132 3133 3134 3136 3138 3140 3141 3143 3145 3147 3149 3152 3155 3155 3157 3161 3164 3166 3167 3168 3169 3167 3166 3167 3168 3168 3166 3163 3164 3165 3165 3167 3168 3171 3173 3176 3179 3181 3184 3188 3191 3193
3121 3121 3121 3121 3121 3121 3122 3122 3123 3123 3123 3122 3122 3122 3122 3122 3123 3123 3123 3122 3122 3121 3119 3118 3117 3117 3118 3118 3117 3118 3118 3119 3120 3121 3122 3123 3124 3126 3127 3128 3128 3129 3129 3130 3131 3131 3131 3132 3133 3134 3136 3137 3139 3140 3141 3144 3146 3148 3150 3152 3155 3159 3165 3169 3170 3169 3168 3166 3166 3168 3169 3167 3164 3163 3164 3163 3165 3166 3167 3170 3173 3175 3178 3181 3183 3186 3189 3191
3121 3121 3121 3121 3121 3122 3122 3123 3123 3123 3123 3123 3123 3123 3123 3123 3124 3124 3123 3123 3123 3122 3121 3120 3119 3118 3118 3118 3117 3118 3118 3119 3120 3120 3122 3123 3124 3126 3127 3127 3128 3128 3129 3130 3130 3130 3130 3130 3130 3132 3133 3134 3136 3138 3140 3143 3145 3146 3149 3151 3153 3155 3160 3166 3167 3166 3165 3165 3166 3168 3168 3165 3163 3163 3163 3162 3164 3165 3166 3169 3171 3174 3178 3180 3182 3184 3186 3189
3121 3121 3121 3122 3122 3122 3123 3124 3124 3124 3124 3124 3123 3123 3123 3124 3125 3124 3124 3123 3123 3122 3121 3121 3120 3119 3119 3118 3118 3118 3118 3119 3120 3121 3122 3124 3125 3126 3127 3127 3127 3128 3128 3129 3129 3129 3129 3128 3128 3130 3132 3133 3135 3138 3140 3143 3144 3146 3148 3150 3151 3153 3156 3160 3162 3162 3162 3163 3165 3166 3164 3162 3162 3162 3162 3162 3163 3164 3165 3167 3170 3173 3175 3177 3179 3180 3183 3187
3122 3122 3122 3123 3123 3123 3124 3124 3125 3125 3125 3125 3123 3123 3124 3125 3125 3125 3124 3123 3123 3122 3121 3121 3120 3120 3119 3119 3119 3118 3119 3119 3120 3121 3123 3124 3125 3126 3126 3127 3127 3127 3128 3128 3128 3129 3128 3128 3128 3130 3131 3133 3135 3138 3140 3141 3142 3144 3145 3147 3150 3154 3156 3157 3159 3160 3161 3163 3163 3162 3161 3161 3162 3162 3161 3162 3162 3163 3165 3166 3168 3171 3173 3175 3176 3178 3182 3185
3123 3123 3123 3123 3124 3124 3125 3125 3126 3125 3126 3125 3124 3124 3125 3126 3125 3125 3124 3124 3123 3122 3121 3120 3120 3120 3120 3120 3120 3120 3120 3120 3120 3123 3125 3125 3126 3126 3126 3127 3127 3127 3127 3127 3127 3128 3128 3127 3127 3128 3130 3132 3134 3137 3139 3140 3141 3142 3143 3146 3150 3154 3155 3156 3158 3160 3161 3162 3162 3160 3160 3161 3161 3161 3160 3161 3161 3162 3164 3165 3167 3169 3170 3173 3176 3179 3182 3185
3124 3124 3124 3124 3125 3125 3126 3126 3126 3126 3126 3126 3125 3126 3126 3126 3126 3125 3125 3124 3123 3123 3121 3120 3121 3121 3121 3121 3121 3121 3121 3122 3122 3124 3125 3126 3126 3126 3126 3127 3127 3127 3127 3127 3127 3127 3127 3126 3126 3127 3128 3130 3133 3135 3136 3138 3140 3142 3143 3146 3149 3150 3151 3153 3156 3158 3160 3162 3161 3160 3159 3159 3160 3160 3159 3160 3161 3162 3163 3165 3166 3168 3169 3172 3176 3179 3182 3185
3124 3125 3125 3125 3125 3126 3126 3127 3127 3127 3127 3126 3126 3127 3127 3126 3126 3126 3125 3125 3124 3123 3122 3121 3122 3122 3122 3121 3122 3122 3122 3123 3123 3124 3125 3126 3126 3126 3126 3127 3128 3128 3127 3127 3126 3126 3127 3126 3125 3126 3127 3129 3131 3132 3133 3135 3138 3141 3143 3145 3146 3147 3149 3150 3152 3153 3156 3160 3160 3159 3159 3157 3157 3159 3159 3160 3160 3161 3163 3164 3165 3167 3169 3172 3175 3179 3182 3184
3125 3125 3126 3126 3126 3126 3127 3127 3127 3127 3127 3127 3127 3127 3127 3127 3126 3126 3125 3125 3125 3124 3123 3123 3122 3122 3122 3122 3122 3123 3123 3124 3124 3124 3125 3126 3126 3127 3127 3127 3128 3128 3127 3127 3126 3126 3126 3126 3125 3125 3126 3128 3129 3130 3132 3134 3136 3138 3140 3142 3143 3145 3147 3148 3150 3150 3151 3155 3157 3158 3158 3155 3155 3158 3159 3159 3160 3160 3162 3164 3166 3168 3170 3172 3175 3178 3181 3183
3125 3126 3126 3127 3127 3127 3127 3127 3127 3128 3128 3128 3128 3128 3128 3127 3127 3127 3126 3126 3125 3125 3124 3124 3123 3123 3123 3123 3123 3123 3124 3124 3124 3125 3125 3126 3126 3127 3127 3127 3127 3127 3127 3127 3126 3126 3125 3125 3125 3125 3125 3126 3128 3129 3132 3134 3136 3137 3139 3140 3142 3143 3144 3146 3148 3149 3149 3151 3153 3155 3155 3153 3154 3156 3157 3158 3159 3160 3162 3164 3167 3169 3170 3172 3175 3177 3180 3182
3126 3126 3126 3127 3127 3127 3127 3127 3127 3128 3128 3128 3128 3128 3128 3128 3127 3127 3127 3126 3126 3125 3125 3124 3124 3124 3124 3123 3123 3123 3124 3124 3124 3125 3126 3126 3126 3127 3127 3128 3128 3127 3127 3127 3126 3126 3125 3125 3125 3124 3125 3126 3127 3129 3131 3133 3135 3137 3138 3140 3141 3142 3142 3143 3145 3146 3148 3149 3150 3151 3152 3152 3153 3155 3156 3157 3158 3160 3162 3164 3167 3169 3171 3173 3175 3177 3179 3181
3125 3126 3127 3127 3127 3127 3127 3127 3127 3127 3128 3128 3128 3128 3128 3128 3127 3127 3127 3126 3126 3126 3125 3125 3125 3124 3124 3124 3124 3123 3124 3124 3124 3124 3125 3126 3126 3127 3127 3128 3128 3127 3127 3126 3126 3125 3125 3125 3125 3125 3125 3126 3127 3129 3130 3132 3134 3136 3137 3138 3139 3140 3141 3142 3143 3144 3146 3147 3148 3150 3151 3152 3152 3154 3155 3156 3158 3160 3162 3164 3167 3169 3171 3173 3174 3176 3178 3180
3125 3126 3127 3127 3127 3127 3127 3127 3127 3127 3127 3128 3128 3128 3128 3128 3127 3127 3127 3127 3126 3126 3126 3126 3125 3125 3125 3124 3124 3124 3124 3124 3124 3124 3125 3126 3126 3127 3127 3128 3128 3127 3127 3126 3126 3125 3125 3125 3125 3125 3125 3127 3128 3129 3130 3132 3133 3134 3135 3137 3138 3139 3140 3141 3142 3143 3144 3145 3147 3148 3149 3150 3151 3153 3154 3156 3157 3159 3161 3164 3166 3168 3171 3173 3174 3176 3178 3179
3125 3126 3126 3127 3127 3127 3127 3127 3127 3127 3127 3127 3128 3128 3128 3128 3127 3127 3127 3126 3126 3126 3126 3126 3126 3125 3125 3125 3125 3125 3124 3124 3124 3125 3125 3126 3127 3127 3127 3127 3128 3127 3127 3127 3127 3126 3126 3126 3126 3125 3126 3127 3129 3130 3130 3131 3132 3133 3134 3135 3136 3138 3139 3139 3140 3141 3142 3144 3145 3146 3147 3148 3149 3151 3153 3155 3156 3158 3160 3163 3165 3167 3170 3172 3174 3175 3177 3178
3125 3125 3126 3126 3126 3126 3126 3126 3126 3127 3127 3127 3128 3128 3128 3128 3127 3127 3126 3126 3126 3126 3126 3126 3126 3126 3126 3125 3125 3125 3125 3125 3125 3125 3126 3126 3127 3127 3127 3127 3128 3128 3128 3127 3127 3127 3126 3127 3127 3127 3127 3128 3129 3130 3131 3131 3131 3131 3132 3134 3135 3137 3138 3138 3139 3140 3141 3143 3144 3145 3146 3147 3148 3149 3151 3153 3155 3157 3159 3162 3164 3167 3169 3171 3173 3174 3176 3178
3124 3125 3125 3125 3126 3126 3126 3126 3126 3126 3127 3127 3127 3128 3128 3128 3127 3127 3126 3126 3126 3126 3126 3126 3126 3126 3126 3125 3125 3126 3126 3125 3125 3126 3126 3126 3127 3127 3127 3128 3128 3129 3129 3128 3128 3128 3127 3129 3130 3130 3129 3129 3130 3131 3131 3131 3131 3131 3132 3133 3134 3136 3137 3138 3139 3139 3141 3142 3143 3144 3145 3146 3147 3148 3150 3152 3154 3156 3158 3160 3163 3166 3168 3170 3172 3173 3175 3177
3124 3124 3124 3125 3125 3125 3126 3126 3126 3126 3127 3127 3127 3127 3127 3127 3127 3127 3126 3126 3126 3126 3126 3126 3126 3126 3126 3126 3126 3126 3126 3126 3126 3126 3126 3126 3127 3127 3127 3127 3128 3129 3129 3128 3128 3128 3128 3130 3133 3132 3131 3131 3131 3131 3132 3132 3132 3132 3132 3133 3134 3135 3136 3137 3138 3139 3140 3141 3142 3144 3145 3145 3147 3148 3149 3151 3153 3155 3157 3160 3163 3165 3167 3169 3171 3172 3174 3176
3123 3123 3124 3124 3125 3125 3126 3126 3126 3127 3127 3127 3127 3127 3127 3127 3127 3127 3126 3125 3125 3125 3125 3125 3125 3125 3125 3125 3126 3126 3126 3126 3126 3126 3126 3126 3126 3126 3126 3127 3127 3128 3128 3128 3128 3129 3129 3131 3134 3134 3132 3132 3132 3132 3132 3133 3133 3133 3132 3133 3134 3135 3136 3137 3138 3139 3140 3141 3142 3143 3144 3145 3146 3147 3149 3150 3152 3154 3157 3159 3162 3164 3167 3168 3170 3172 3174 3175
3122 3123 3123 3124 3124 3125 3125 3126 3126 3126 3127 3127 3127 3127 3127 3127 3127 3126 3126 3125 3124 3124 3124 3125 3125 3124 3124 3125 3125 3126 3126 3126 3126 3126 3126 3126 3127 3127 3127 3127 3127 3127 3127 3127 3128 3129 3129 3130 3133 3134 3133 3133 3133 3132 3132 3133 3134 3134 3133 3133 3133 3134 3135 3136 3137 3138 3139 3140 3141 3142 3143 3144 3145 3147 3148 3150 3152 3154 3156 3158 3161 3163 3165 3168 3169 3171 3173 3174
3121 3122 3123 3123 3123 3124 3125 3125 3125 3126 3126 3127 3127 3127 3126 3126 3126 3126 3125 3125 3124 3124 3124 3124 3124 3124 3124 3124 3125 3125 3125 3126 3126 3126 3126 3127 3127 3127 3127 3128 3128 3128 3127 3127 3127 3128 3129 3130 3132 3133 3133 3133 3134 3133 3133 3134 3134 3134 3134 3134 3134 3135 3135 3136 3137 3138 3139 3140 3140 3141 3142 3143 3144 3146 3147 3149 3151 3153 3155 3157 3160 3162 3165 3166 3168 3169 3171 3172
3120 3121 3122 3122 3122 3123 3124 3124 3125 3125 3126 3126 3127 3127 3126 3126 3126 3126 3125 3125 3124 3124 3124 3124 3124 3124 3124 3124 3124 3125 3126 3126 3126 3126 3127 3127 3127 3127 3127 3128 3128 3128 3128 3128 3128 3127 3128 3129 3130 3131 3132 3133 3134 3134 3134 3134 3135 3136 3136 3136 3136 3136 3136 3137 3138 3138 3139 3139 3140 3141 3142 3143 3144 3145 3146 3147 3149 3152 3154 3157 3160 3162 3164 3166 3167 3168 3169 3170